Location: B?jaj?g
(11.7167°N, 92.6667°E)
Time: 12:57:38
(UTC+00:00)

Cosmos 1975 Rocket - Pass Details

Date: 18 September 2020
Orbit: 603 x 634 km, 82.5° (Epoch: 25 October)

Event Time Altitude Azimuth Distance (km) Brightness Sun altitude
Rises 12:46:36 0° 11° (N) 2,844 6.4 -15.2°
Reaches altitude 10° 12:49:00 10° 22° (NNE) 1,941 5.4 -15.7°
Maximum altitude 12:52:49 31° 85° (E) 1,058 3.7 -16.7°
Enters shadow 12:52:50 31° 85° (E) 1,058 3.7 -16.7°
